Вернуться в каталог

COSMOS 1622

АктивенВоенныеPO
NORAD 15474·PAYLOAD·🇷🇺 Russia

Запущен Jan 15, 1985 с Plesetsk Cosmodrome

Loading…

Ближайшие Пролёты (ближайшие 24 часа)

TLE

СвежийSource: Space-Track

Эпоха: Sep 14, 2026, 19:30 UTC

1 15474U 85003F   26257.81273993  .00000009  00000-0 -90619-5 0  9991
2 15474  82.6112  27.6833 0008448 337.5756 177.5523 12.63800536921851

Отслеживайте COSMOS 1622 в реальном времени с AllMySat

Download on the App Store